Content
SEND FEEDBACK

Daily
Averages
Monthly
Summary
United States of America

MANELE BAY, HAWAII


Home > North America > United States > Hawaii
Elevation: 175 feet     Latitude: 20 50N     Longitude: 156 55W

WEATHER
 
SELECT A DAY
Number of Records: 153,023;   Date Range: 1/1/95 - 9/18/14
 
SHARE

PRINT THIS DATA

[ ← Previous Day ]
WEATHER ALMANAC - JANUARY 31, 2013
[ Next Day → ]
[ °C ]   °F
Weather ElementAverageHighLow
Temperature68.9 °F73.9 °F (1:56 pm)65.8 °F (1:56 am)
Dewpoint64 °F66.9 °F (1:56 pm)61 °F (1:56 am)
Humidity84.2 %94 % (12:28 pm)70 % (3:56 pm)
Barometer30.07 in30.13 in (12:07 pm)30.01 in (3:56 am)
Wind Speed17.9 mph29.9 mph (8:56 pm)
Wind Gust34.5 mph (8:56 pm)
Weather ElementAverage
Visibility8.2 mi
Wind DirectionNE (43.1 °)

Weather ElementTotal
Precipitation0.05 in
Cooling Degree Days4.8 (Base 65)
Growing Degree Days19.9 (Base 50)
Averaged from 29 records on January 31, 2013
WEATHER CONDITIONS BREAKOUT
WIND DIRECTION BREAKOUT
WEATHER BY HOUR - JANUARY 31, 2013
[ °C ]   °F
Local TimeTemperatureDewpointHumidityBarometerVisibilityWind DirectionWind SpeedGust SpeedPrecipitationEventsConditions
1:56 AM65.8 °F61.0 °F84 %30.04 in10.0 miNE (40°)12.7 mphClear
2:56 AM68.0 °F63.0 °F84 %30.03 in10.0 miNNE (30°)10.4 mphOvercast
3:56 AM66.9 °F63.9 °F90 %30.01 in10.0 miNE (40°)13.8 mphPartly Cloudy
4:56 AM66.9 °F63.0 °F87 %30.01 in10.0 miNE (40°)13.8 mphPartly Cloudy
5:56 AM66.9 °F63.9 °F90 %30.02 in10.0 miNE (40°)17.3 mphClear
6:56 AM66.9 °F63.9 °F90 %30.04 in10.0 miNE (50°)13.8 mphClear
7:56 AM68.0 °F63.0 °F84 %30.06 in10.0 miEast (80°)11.5 mphScattered Clouds
8:56 AM70.0 °F64.9 °F84 %30.08 in10.0 miNE (40°)17.3 mph0.00 inRainLight Rain
9:56 AM68.9 °F65.8 °F90 %30.09 in10.0 miNE (50°)19.6 mph0.00 inRainLight Rain
10:56 AM72.9 °F65.8 °F79 %30.09 in10.0 miNE (50°)21.9 mph0.00 inMostly Cloudy
11:56 AM70.9 °F64.9 °F81 %30.09 in1.8 miNE (40°)15.0 mph0.00 inRainRain
12:07 PM69.8 °F64.4 °F83 %30.13 in1.0 miNE (40°)12.7 mph0.00 inRainHeavy Rain
12:10 PM69.8 °F64.4 °F83 %30.13 in0.5 miNNE (30°)13.8 mph0.00 inFog-RainHeavy Rain
12:19 PM68.0 °F64.4 °F88 %30.13 in0.8 miNE (50°)16.1 mph0.01 inRainHeavy Rain
12:23 PM68.0 °F64.4 °F88 %30.13 in1.2 miNE (50°)15.0 mph0.01 inRainLight Rain
12:25 PM68.0 °F64.4 °F88 %30.13 in2.5 miNE (50°)12.7 mph0.01 inRainLight Rain
12:28 PM68.0 °F66.2 °F94 %30.12 in10.0 miNE (50°)12.7 mph0.01 inRainLight Rain
12:56 PM70.0 °F65.8 °F87 %30.06 in10.0 miNE (40°)11.5 mph19.6 mph0.01 inMostly Cloudy
1:56 PM73.9 °F66.9 °F79 %30.03 in10.0 miNE (40°)21.9 mphPartly Cloudy
2:56 PM73.9 °F64.9 °F73 %30.01 in10.0 miNNE (30°)21.9 mph27.6 mph0.00 inClear
3:56 PM72.0 °F61.9 °F70 %30.02 in10.0 miNE (40°)20.7 mph27.6 mphScattered Clouds
4:56 PM72.0 °F61.9 °F70 %30.03 in10.0 miNE (40°)20.7 mph26.5 mphClear
5:56 PM70.0 °F63.0 °F78 %30.04 in10.0 miNE (40°)20.7 mphClear
6:56 PM68.0 °F63.0 °F84 %30.05 in10.0 miNE (40°)24.2 mph31.1 mphClear
7:56 PM68.0 °F63.9 °F87 %30.07 in10.0 miNE (50°)23.0 mph28.8 mphClear
8:56 PM66.9 °F63.0 °F87 %30.07 in10.0 miNE (40°)29.9 mph34.5 mph0.00 inScattered Clouds
9:56 PM66.9 °F63.0 °F87 %30.08 in10.0 miNE (40°)28.8 mph33.4 mph0.00 inPartly Cloudy
10:56 PM66.9 °F63.0 °F87 %30.07 in10.0 miNE (40°)20.7 mph32.2 mphPartly Cloudy
11:56 PM66.9 °F63.0 °F87 %30.06 in10.0 miNE (40°)25.3 mph29.9 mphClear
Hourly data recorded from PHNY, located miles away from Manele Bay, Hawaii







STORIES FROM OUR PARTNERS